Torna al catalogo

STARLINK-37188

AttivoComunicazioniSSO
NORAD 68404·PAYLOAD·🇺🇸 United States

Lanciato Mar 26, 2026 da Vandenberg Space Force Base

Loading…

Prossimi Passaggi (prossime 24 ore)

TLE

AggiornatoSource: CelesTrak SupGP

Epoca: Sep 14, 2026, 21:43 UTC

1 68404C 26063AA  26257.90534722  .00008041  00000+0  24950-3 0  2575
2 68404  97.2857  38.9205 0001125  93.4974 349.3666 15.33447856    18

Traccia STARLINK-37188 in tempo reale con AllMySat

Download on the App Store